Location: Laterina
(43.5167°N, 11.7167°E)
Time: 13:15:14
(UTC+00:00)

Cosmos 2026 Rocket - Pass Details

Date: 20 January 2021
Orbit: 940 x 1000 km, 82.9° (Epoch: 28 February)

Event Time Altitude Azimuth Distance (km) Brightness Sun altitude
Rises 19:31:31 0° 218° (SW) 3,601 7.3 -36.4°
Reaches altitude 10° 19:34:19 10° 229° (SW) 2,667 6.7 -36.9°
Maximum altitude 19:39:34 30° 289° (WNW) 1,658 5.6 -37.9°
Drops below altitude 10° 19:44:55 10° 349° (NNW) 2,714 6.5 -38.8°
Sets 19:47:49 0° 360° (N) 3,675 7.1 -39.4°
